Location: Newark
(36.6294°S, 72.9458°W)
Time: 06:40:26
(UTC+00:00)

LightSail 2 - Pass Details

Date: 24 January 2020
Orbit: 700 x 722 km, 24.0° (Epoch: 18 February)

Event Time Altitude Azimuth Distance (km) Brightness Sun altitude
Exits shadow 09:03:13 10° 334° (NNW) 2,234 7.2 -10.5°
Reaches altitude 10° 09:03:23 10° 336° (NNW) 2,198 7.2 -10.5°
Maximum altitude 09:06:24 16° 11° (NNE) 1,845 7.1 -10.0°
Drops below altitude 10° 09:09:24 10° 47° (NE) 2,194 7.9 -9.5°
Sets 09:12:46 0° 69° (ENE) 3,110 9.0 -8.9°
